sat.trackr.live / text

‹ back to catalog

NETSAT-3

NORAD 46505 · 2020-068V

PAYLOAD ACTIVE UNKNOWN

§ Identity

Operator
Country
GER
Launch date
2020-09-28
Launch site
PLMSC
Launch vehicle
Mass (kg)
RCS (m²)

Purposes: tech_demo

External: N2YO · Heavens-Above · Gunter

§ Orbital elements

Epoch: 2026-05-24T23:14:02.188032Z

Period
93.40 min
Inclination
97.8663°
Eccentricity
0.0007134
Mean motion
15.41763053 rev/d
Perigee alt
436.0 km
Apogee alt
445.8 km
Semi-major
6,819.0 km
B*
4.0505e-4
RAAN
149.6052°
Arg perigee
71.8687°
Mean anomaly
288.3335°
Rev number
31,210

§ Raw data

NETSAT-31 46505U 20068V   26144.96808088  .00017066  00000+0  40505-3 0  99962 46505  97.8663 149.6052 0007134  71.8687 288.3335 15.41763053312104

JSON: /api/v1/satellites/46505 · /tle

For live sub-satellite position, see the globe view (requires WebGL).

§ Visibility from observer

Set your observer location to see the next 7 days of passes ≥ 10°. The values pass through the URL so the page stays shareable.

No JS? Fill the form by hand. The geolocation button needs JavaScript.

§ Radio — SatNOGS DB

ModeDescriptionDownlinkUplink
FSK AX.25 G3RUH Telemetry 435.600 MHz

1 transmitter · refreshed weekly from db.satnogs.org